Flag for U.S.A. Weather past 2 weeks in Kodiak, Alaska, U.S.A.

Now
42 °F

Light rain. Fog.


Feels Like: 32 °F
Forecast: 39 / 40 °F
Wind: 24 mph from Northeast

Location: Kodiak Weather Reporting Station


UV Index: 0 (Low)

Visibility: 4 mi


Pressure: 29.36 "Hg

Humidity: 92%

Dew point: 40 °F

Location of KodiakLocation

Historic Weather in Kodiak

°F

Kodiak temperature yesterday

Maximum temperature yesterday: 43 °F (at 6:00 PM)
Minimum temperature yesterday: 32 °F (at 7:53 AM)
Average temperature yesterday: 39 °F

Past Weeks' High & Low Weather Summary

 TemperatureHumidityPressure
High47 °F (Apr 13, 3:53 PM)100% (Apr 7, 5:02 AM)30.21 "Hg (Apr 7, 5:02 AM)
Low20 °F (Apr 9, 3:53 AM)26% (Apr 8, 2:53 PM)29.26 "Hg (Apr 4, 7:53 PM)
Average38 °F77%29.66 "Hg
* Reported Apr 4 10:53 AM — Apr 19 10:53 AM, Kodiak, Weather by CustomWeather, © 2014

Note: Actual official high and low records may vary slightly from our data, if they occured in-between our weather recording intervals... More about our weather records

Advertising

Historic Weather Conditions — Data for Previous 24 hours

 ConditionsComfort  
Time TempWeatherWind HumidityBarometerVisibility
10:53 AM
Apr 19
42 °FLight rain. Fog.24 mph92%29.36 "Hg4 mi
9:53 AM42 °FLight rain. Fog.22 mph92%29.36 "Hg4 mi
8:53 AM41 °FLight rain. Fog.22 mph96%29.36 "Hg4 mi
7:53 AM41 °FLight rain. Mostly cloudy.23 mph96%29.36 "Hg7 mi
7:00 AM41 °FLight rain. Mostly cloudy.17 mph93%29.37 "Hg7 mi
5:53 AM40 °FLight rain. Low clouds.25 mph93%29.38 "Hg7 mi
4:53 AM40 °FLight rain. Fog.25 mph93%29.39 "Hg5 mi
3:53 AM40 °FLight rain. Fog.22 mph93%29.40 "Hg4 mi
2:53 AM40 °FLight rain. Fog.25 mph89%29.41 "Hg4 mi
1:53 AM39 °FLight rain. Fog.21 mph93%29.43 "Hg5 mi
12:53 AM39 °FLight rain. Fog.20 mph89%29.44 "Hg5 mi
11:53 PM
Apr 18
40 °FLight rain. Fog.23 mph89%29.45 "Hg6 mi
10:53 PM40 °FLight rain. Overcast.22 mph89%29.47 "Hg9 mi
9:53 PM40 °FLight rain. Mostly cloudy.15 mph89%29.47 "Hg9 mi
8:53 PM41 °FMostly cloudy.15 mph89%29.46 "Hg10 mi
7:53 PM41 °FCloudy.20 mph89%29.46 "Hg10 mi
6:53 PM42 °FCloudy.15 mph79%29.46 "Hg10 mi
6:00 PM43 °FCloudy.14 mph81%29.47 "Hg10 mi
4:53 PM42 °FCloudy.16 mph82%29.47 "Hg10 mi
3:53 PM42 °FBroken clouds.13 mph82%29.47 "Hg10 mi
2:53 PM42 °FPartly sunny.20 mph82%29.46 "Hg10 mi
1:53 PM42 °FPartly sunny.10 mph82%29.46 "Hg10 mi
12:53 PM40 °FPartly sunny.8 mph89%29.45 "Hg10 mi
Weather by CustomWeather, © 2014

See weather overview